Location: Newark
(41.9364°N, 2.8061°E)
Time: 23:43:08
(UTC+00:00)

A-11 Canister half - Pass Details

Date: 21 February 2020
Orbit: 1517 x 1683 km, 47.2° (Epoch: 01 April)

Event Time Altitude Azimuth Distance (km) Brightness Sun altitude
Rises 20:17:44 0° 289° (WNW) 4,844 12.7 -32.0°
Reaches altitude 10° 20:20:55 10° 292° (WNW) 3,834 11.9 -32.5°
Maximum altitude 20:30:40 76° 18° (NNE) 1,611 8.9 -34.3°
Enters shadow 20:31:25 73° 56° (NE) 1,630 8.8 -34.4°
